Volver al catálogo

STARLINK-6279

ActivoComunicacionesVLEO
NORAD 56411·PAYLOAD·🇺🇸 United States

Lanzado May 4, 2023 desde Cape Canaveral Space Force Station

Loading…

Próximos Pases (próximas 24 horas)

TLE

ActualizadoSource: CelesTrak SupGP

Época: Sep 15, 2026, 01:46 UTC

1 56411C 23061AP  26258.07409722 -.00027676  00000+0 -10027-2 0  2582
2 56411  42.9994 197.7839 0000829 258.8391 153.0511 15.27584886    16

Sigue STARLINK-6279 en tiempo real con AllMySat

Download on the App Store